Content
SEND FEEDBACK

Daily
Averages
Monthly
Summary
United States of America

LOVELACEVILLE, KENTUCKY


Home > North America > United States > Kentucky
Elevation: 372 feet     Latitude: 36 58N     Longitude: 088 49W

WEATHER
 
SELECT A DAY
Number of Records: 211,955;   Date Range: 1/1/95 - 10/18/14
 
SHARE

PRINT THIS DATA

[ ← Previous Day ]
WEATHER ALMANAC - JANUARY 23, 2013
[ Next Day → ]
[ °C ]   °F
Weather ElementAverageHighLow
Temperature31.9 °F46 °F (2:53 pm)19 °F (1:53 am)
Dewpoint20 °F28.9 °F (3:53 pm)9 °F (4:53 am)
Humidity63.1 %85 % (8:53 pm)42 % (12:53 pm)
Barometer30.27 in30.39 in (1:53 am)30.16 in (4:53 pm)
Wind Speed5.7 mph12.7 mph (1:53 pm)
Weather ElementAverage
Visibility10 mi
Wind DirectionSSW (207.8 °)

Weather ElementTotal
Precipitation---
Heating Degree Days32.5 (Base 65)
Averaged from 23 records on January 23, 2013
WEATHER CONDITIONS BREAKOUT
WIND DIRECTION BREAKOUT
WEATHER BY HOUR - JANUARY 23, 2013
[ °C ]   °F
Local TimeTemperatureDewpointHumidityBarometerVisibilityWind DirectionWind SpeedGust SpeedPrecipitationEventsConditions
1:53 AM19.0 °F12.0 °F74 %30.39 in10.0 miCalmClear
2:53 AM19.9 °F10.0 °F65 %30.38 in10.0 miESE (120°)3.5 mphClear
3:53 AM19.0 °F10.9 °F71 %30.37 in10.0 miSE (130°)3.5 mphClear
4:53 AM19.0 °F9.0 °F65 %30.36 in10.0 miSE (140°)4.6 mphClear
5:53 AM19.0 °F10.0 °F68 %30.35 in10.0 miESE (120°)4.6 mphClear
6:53 AM19.0 °F10.0 °F68 %30.36 in10.0 miSE (130°)3.5 mphClear
7:53 AM21.9 °F10.9 °F63 %30.35 in10.0 miSE (140°)4.6 mphClear
8:53 AM27.0 °F12.9 °F56 %30.35 in10.0 miSSE (160°)3.5 mphClear
9:53 AM32.0 °F14.0 °F48 %30.34 in10.0 miSouth (190°)6.9 mphClear
10:53 AM37.0 °F17.1 °F44 %30.31 in10.0 miWSW (240°)8.1 mphClear
11:53 AM41.0 °F19.9 °F43 %30.26 in10.0 miWSW (240°)8.1 mphClear
12:53 PM44.1 °F21.9 °F42 %30.22 in10.0 miWSW (240°)8.1 mphClear
1:53 PM45.0 °F24.1 °F44 %30.19 in10.0 miWest (260°)12.7 mphClear
2:53 PM46.0 °F27.0 °F47 %30.18 in10.0 miWSW (240°)12.7 mphClear
3:53 PM46.0 °F28.9 °F51 %30.17 in10.0 miSW (230°)8.1 mphClear
4:53 PM44.1 °F28.9 °F55 %30.16 in10.0 miWest (280°)9.2 mphClear
5:53 PM37.0 °F28.0 °F70 %30.18 in10.0 miWest (280°)4.6 mphClear
6:53 PM35.1 °F28.0 °F76 %30.18 in10.0 miWSW (250°)4.6 mphClear
7:53 PM34.0 °F27.0 °F75 %30.20 in10.0 miWSW (240°)3.5 mphClear
8:53 PM30.9 °F27.0 °F85 %30.21 in10.0 miWSW (250°)3.5 mphClear
9:53 PM32.0 °F27.0 °F82 %30.22 in10.0 miWest (280°)3.5 mphClear
10:53 PM33.1 °F28.0 °F82 %30.24 in10.0 miNW (310°)4.6 mphClear
11:53 PM33.1 °F27.0 °F78 %30.27 in10.0 miNW (310°)4.6 mphClear
Hourly data recorded from KPAH, located miles away from Lovelaceville, Kentucky







STORIES FROM OUR PARTNERS